Other Public Products
Issued by NWS Grand Forks, ND

Home | Current Version | Previous Version | Text Only | Print | Product List | Glossary Off
Versions: 1 2 3 4 5 6 7 8 9 10 11 12 13 14 15 16 17 18 19 20 21 22 23 24 25 26 27 28 29 30 31 32 33 34 35 36 37 38 39 40 41 42 43 44 45 46 47 48 49 50

000
FPUS83 KFGF 030331
OPUFGF
PRAIRIE TO PINES WEATHER ROUNDUP
NATIONAL WEATHER SERVICE EASTERN NORTH DAKOTA/GRAND FORKS ND
1000 PM CDT THU JUL 02 2015

 **SATELLITE DATA USED TO AUGMENT SKY COVER AT AUTOMATED STATIONS**
 *****  WEATHER ACROSS EASTERN NORTH DAKOTA  *****

CITY           SKY/WX    TMP DP  RH WIND       PRES   REMARKS
GRAND FORKS    CLOUDY    69  65  86 SW6       29.88S
GRAND FORKS AF PTCLDY    64  63  94 SW6       29.90R
GRAND CITY NWS   N/A     70 N/A N/A W6          N/A
BUXTON         NOT AVBL
DEVILS LAKE    MOCLDY    68  61  77 W6        29.92R
FARGO          PTCLDY    67  55  65 S8        29.93R
WAHPETON ARPT  PTCLDY    63  54  72 S6        29.96R
$$

 *****  WEATHER ACROSS CENTRAL AND WESTERN NORTH DAKOTA  *****

CITY           SKY/WX    TMP DP  RH WIND       PRES   REMARKS
JAMESTOWN      CLEAR     71  64  78 S7        29.93R
BISMARCK       CLOUDY    72  64  76 CALM      29.98R HAZE
MINOT          CLOUDY    71  64  78 W8        29.96R HAZE
MINOT AFB      MOCLDY    67  67 100 W6        29.95S FOG
GARRISON         N/A     68  65  90 NW6       29.98R
WILLISTON      MOCLDY    76  63  64 NE7       30.00R
DICKINSON      CLEAR     71  59  65 NE5       30.02R HAZE
HETTINGER      CLEAR     66  58  75 CALM      30.05R HAZE
$$

 *****  OTHER OBSERVATIONS NORTHEAST NORTH DAKOTA  *****

CITY           SKY/WX    TMP DP  RH WIND       PRES   REMARKS
WALHALLA       FAIR      70  70 100 MISG      29.90R FOG
LANGDON        FAIR      66  66 100 NW6       29.93R FOG
CAVALIER       FAIR      72  66  83 W7        29.88R HAZE
GRAFTON        FAIR      72  70  94 W5        29.89R FOG
CANDO          FAIR      64  64 100 NW6       29.94R FOG
FORT TOTTEN      N/A     66  62  86 CALM      29.95S
ROLLA          MOCLDY    66  64  94 NW7       29.96R
RUGBY          NOT AVBL
 ***** THE ABOVE OBSERVATIONS ARE NON NWS ARE NOT QUALITY
        CONTROLLED AND MAY MIS-REPORT RAIN FOR SNOW...
$$

 *****  OTHER OBSERVATIONS SOUTHEAST NORTH DAKOTA *****

CITY           SKY/WX    TMP DP  RH WIND       PRES   REMARKS
COOPERSTOWN    NOT AVBL
VALLEY CITY    CLOUDY    66  66 100 S8        29.94S
OAKES            N/A     64  64 100 S6        29.96R
GWINNER          N/A    N/A N/A N/A SW7       29.95S
BUFFALO        NOT AVBL
WYNDMERE       NOT AVBL
 ***** THE ABOVE OBSERVATIONS ARE NON NWS ARE NOT QUALITY
       CONTROLLED AND MAY MIS-REPORT RAIN FOR SNOW...
$$

  *****  WEATHER ACROSS NORTHERN MINNESOTA  *****

CITY           SKY/WX    TMP DP  RH WIND       PRES   REMARKS
FLAG ISLAND    PTCLDY    70  63  78 SW12      29.84S
WARROAD        PTCLDY    68  61  77 SW8       29.88S
ROSEAU         PTCLDY    68  61  77 SW8       29.88R
HALLOCK        PTCLDY    66  64  94 CALM      29.87S
THF RVR FALLS  CLOUDY    68  55  64 S7        29.91S
HALSTAD        NOT AVBL
FOSSTON        PTCLDY    64  55  72 S6        29.94S
BAUDETTE       CLOUDY    69  56  62 SW8       29.88S
WASKISH        MOCLDY    66  57  72 S5        29.91S
CROOKSTON      PTCLDY    68  61  77 S9        29.91S
$$
  *****  WEATHER ACROSS CENTRAL AND WEST MINNESOTA  *****

CITY           SKY/WX    TMP DP  RH WIND       PRES   REMARKS
BEMIDJI        PTCLDY    64  56  74 SW5       29.94F
PARK RAPIDS    PTCLDY    63  54  72 W3        29.98R
WADENA         PTCLDY    57  52  82 CALM      29.98R
DETROIT LAKES  MOCLDY    64  54  68 S3        29.98R
MOORHEAD       MOCLDY    68  55  64 S7        29.95R
FERGUS FALLS   PTCLDY    66  55  68 S5        29.96R
ELBOW LAKE     FAIR      62  55  77 S7        29.97R
MORRIS MN      CLEAR     63  55  77 S5        29.97R
STAPLES        CLEAR     61  54  77 CALM      29.99R
WHEATON        CLEAR     63  54  72 S6        29.98R
$$
  *****  WEATHER ELSEWHERE ACROSS MINNESOTA  *****

CITY           SKY/WX    TMP DP  RH WIND       PRES   REMARKS
DULUTH         CLEAR     65  56  72 W5        29.97R
INTRNTL FALLS  MOCLDY    68  57  68 SW7       29.89S
ELY            PTCLDY    66  57  72 SW6       29.92F
CLOQUET        CLEAR     63  54  72 SW3       29.97S
BRAINERD       CLEAR     62  56  80 CALM      29.97S
HIBBING        MOCLDY    63  58  83 CALM      29.95R
ALEXANDRIA     PTCLDY    63  51  65 S5        30.00R
SAINT CLOUD    CLEAR     61  56  83 CALM      29.98R
MINNEAPOLIS    PTCLDY    73  53  49 S6        29.98R
$$

  *****  WEATHER ACROSS SOUTH DAKOTA  *****

CITY           SKY/WX    TMP DP  RH WIND       PRES   REMARKS
SIOUX FALLS    PTCLDY    64  59  83 SW3       29.99R
BROOKINGS      CLEAR     63  54  72 S6        30.02R
WATERTOWN      CLEAR     62  52  69 SW5       29.99R
HURON          LGT RAIN  65  59  81 S6        29.98R
SISSETON         N/A     63  57  81 S5        29.96R
ABERDEEN       PTCLDY    65  61  87 S6        29.96F
MITCHELL       CLEAR     64  60  87 S5        30.00R
PIERRE         CLEAR     67  64  90 SE6       29.97R
MOBRIDGE       PTCLDY    70  68  93 N6        29.96R FOG
RAPID CITY     CLEAR     67  59  75 NE9       30.07R
$$

  *****  SOME WEATHER IN NEARBY STATES *****

CITY           SKY/WX    TMP DP  RH WIND       PRES   REMARKS
GLASGOW MT     CLEAR     73  57  57 NE8       30.02S HAZE
GREAT FALLS MT CLOUDY    80  47  31 E14       30.05S
CHEYENNE WY    PTCLDY    67  54  63 SW3       30.24R
SCOTTSBLUFF NE CLOUDY    72  60  66 NE8       30.11R
OMAHA NE       CLOUDY    67  60  78 E8        29.95S
DES MOINES IA  CLOUDY    67  54  63 E6        29.96F
DAVENPORT IA   MOCLDY    61  57  87 N6        29.98R
CHICAGO IL     CLOUDY    58  49  72 N6        30.00R
EAU CLAIRE WI  CLEAR     63  57  81 CALM      29.99R
LA CROSSE WI   CLEAR     66  57  72 E6        29.99R
$$

  *****  SOME NATIONAL WEATHER *****

CITY           SKY/WX    TMP DP  RH WIND       PRES   REMARKS
LA GUARDIA NY  CLOUDY    74  60  61 SW3       29.87R
RALEIGH NC     LGT RAIN  73  70  88 CALM      29.95R
ATLANTA GA     CLOUDY    79  70  74 SW7       29.98S
NEW ORLEANS LA PTCLDY    81  73  76 S8        30.03R
OKLAHOMA CITY  TSTM      72  72 100 E12       29.95R FOG
ALBUQUERQUE NM CLOUDY    73  61  65 E14G20    30.18R
SALT LAKE CITY MOCLDY    89  53  29 W7        29.96S
LOS ANGELES CA PTCLDY    66  63  90 W13       29.92S
BOISE ID       CLEAR     98  42  14 N7        29.86S HX  94
SEATTLE WA     PTCLDY    88  54  31 N10       29.95S
$$

*** WEATHER ACROSS MANITOBA...SASKATCHEWAN AND ONTARIO ***
                ***ONTARIO***

CITY           SKY/WX    TMP DP  RH WIND       PRES   REMARKS
GERALDTON      LGT RAIN  59  57  94 S7        29.86F VSB 1
THUNDER BAY    CLOUDY    57  55  94 NE3       29.87F
SIOUX LOOKOUT  TSTM      61 N/A N/A S6        29.83
TORONTO        CLEAR     61  41  48 N12       29.99S
BIG TROUT LK   MOCLDY    61  61 100 W7        29.68R
PICKLE LAKE    NOT AVBL
DRYDEN         CLOUDY    68  59  73 SW14      29.83R
KENORA         CLOUDY    68  64  88 W6        29.86R
$$
                *** MANITOBA***

CITY           SKY/WX    TMP DP  RH WIND       PRES   REMARKS
BRANDON        SMOKE     63  61  94 NW7       29.93R VSB 3/4
DAUPHIN        CLEAR     70  63  78 W7        29.88R HAZE
ISLAND LAKE    PTCLDY    64  61  88 NW6       29.77R
PILOT MOUND      N/A     64  61  88 NW5         N/A
THE PAS        CLOUDY    68  55  64 CALM      29.88R SMOKE
THOMPSON       PTCLDY    68  48  49 N3        29.81R
WINNIPEG         N/A     66  64  94 W7        29.88R SMOKE
LYNN LAKE      CLEAR     68  46  45 N3        29.86R
CHURCHILL      PTCLDY    55  45  67 VRB2      29.79S
GILLAM         PTCLDY    63  59  88 N13       29.79R
$$
                ***SASKATCHEWAN***

CITY           SKY/WX    TMP DP  RH WIND       PRES   REMARKS
ESTEVAN        CLOUDY    66  64  94 NW6       29.99R SMOKE
KINDERSLEY     MOCLDY    72  64  78 E7        29.99F
LLOYDMINSTER   MOCLDY    72  55  56 SW3       29.96F
PRINCE ALBERT  MOCLDY    70  59  68 SW2       29.93S SMOKE
REGINA         MOCLDY    68  63  83 NW5       30.00R SMOKE
YORKTON        FOG       68  64  88 W7        29.95S VSB 3/4


USA.gov is the U.S. government's official web portal to all federal, state and local government web resources and services.